This is the latest recevied weather packets stored in our database for station/object WI0K. If no packets are shown the sender has not sent any weather packets the latest 10 day(s).
| Time | Temp. | Humidity | Pressure | Rain* | Wind** | Luminosity | Snow |
|---|---|---|---|---|---|---|---|
| 1778028578 | 0.56° C | 99% | 1013.9 hPa | 0 mm | - | 15 W/m² | - |
| 1778028277 | 0.56° C | 99% | 1013.9 hPa | 0 mm | - | 16 W/m² | - |
| 1778027976 | 0.56° C | 99% | 1013.8 hPa | 0 mm | - | 18 W/m² | - |
| 1778027676 | 0.56° C | 99% | 1013.9 hPa | 0 mm | - | 14 W/m² | - |
| 1778027375 | 0° C | 99% | 1013.8 hPa | 0 mm | - | 14 W/m² | - |
| 1778027302 | 0° C | 99% | 1013.7 hPa | 0 mm | - | 14 W/m² | - |
| 1778027075 | 0° C | 99% | 1013.7 hPa | 0 mm | - | 14 W/m² | - |
| 1778026774 | 0° C | 99% | 1013.7 hPa | 0 mm | - | 12 W/m² | - |
| 1778026473 | 0.56° C | 99% | 1013.6 hPa | 0.25 mm | - | 14 W/m² | - |
| 1778026173 | 0.56° C | 98% | 1013.5 hPa | 0.25 mm | - | 16 W/m² | - |
| 1778025872 | 0.56° C | 98% | 1013.5 hPa | 0.51 mm | - | 16 W/m² | - |
| 1778025571 | 0.56° C | 98% | 1013.3 hPa | 0.76 mm | - | 18 W/m² | - |
| 1778025271 | 0.56° C | 98% | 1013.5 hPa | 0.76 mm | - | 18 W/m² | - |
| 1778024970 | 0.56° C | 98% | 1013.3 hPa | 1.02 mm | - | 17 W/m² | - |
| 1778024670 | 0.56° C | 98% | 1013.2 hPa | 1.02 mm | - | 19 W/m² | - |
| 1778024369 | 0.56° C | 98% | 1013.2 hPa | 1.02 mm | - | 16 W/m² | - |
| 1778024068 | 1.11° C | 97% | 1013.3 hPa | 1.27 mm | - | 14 W/m² | - |
| 1778023768 | 1.11° C | 97% | 1013.2 hPa | 1.27 mm | - | 18 W/m² | - |
| 1778023467 | 1.67° C | 97% | 1013.3 hPa | 1.52 mm | - | 20 W/m² | - |
| 1778023417 | 1.67° C | 97% | 1013.5 hPa | 1.78 mm | - | 19 W/m² | - |
| 1778023166 | 1.67° C | 97% | 1013.5 hPa | 1.78 mm | - | 19 W/m² | - |
| 1778023106 | 2.22° C | 97% | 1013.6 hPa | 1.52 mm | - | 18 W/m² | - |
| 1778022866 | 2.22° C | 97% | 1013.6 hPa | 1.52 mm | - | 18 W/m² | - |
| 1778022816 | 2.22° C | 97% | 1013.6 hPa | 1.52 mm | - | 18 W/m² | - |
| 1778022565 | 2.22° C | 97% | 1013.6 hPa | 1.52 mm | - | 18 W/m² | - |
* Rain latest hour (hover to see other rain measurements)
** Current wind speed in m/s (hover to see current wind gust speed)